Location: Kikino
(54.4440°N, 112.0940°W)
Time: 14:26:48
(UTC+00:00)

AO-27 - Pass Details

Date: 10 December 2023
Orbit: 784 x 797 km, 98.8° (Epoch: 28 February)

Event Time Altitude Azimuth Distance (km) Brightness Sun altitude
Exits shadow 03:41:05 12° 341° (NNW) 2,276 10.3 -38.6°
Drops below altitude 10° 03:41:21 10° 341° (NNW) 2,382 10.4 -38.6°
Sets 03:43:42 0° 343° (NNW) 3,317 11.3 -39.0°
